Presure
192 195 209 187 174 178 173 167 162 179 140 173 179 169 184 214 186 183 198 188 187 184 184 176 212 160 187 213 130 186 177 207
196 185 182 187 190 187 172 172 167 179 187 176 189 198 194 164 201 232 203 197 183 184 198 190 202 211 199 236 221 176 208 224
194 203 200 179 179 191 184 189 180 173 177 170 188 190 210 195 189 186 158 181 178 200 193 198 199 199 208 215 241 245 227 216
208 201 208 194 188 190 186 187 189 182 179 182 190 199 193 185 182 191 186 183 185 179 197 201 184 194 199 198 182 214 239 218
130 89 97 199 201 189 194 190 185 188 184 192 196 194 217 219 183 170 188 187 193 185 203 195 196 183 224 213 237 215 179 207
134 213 206 201 201 195 73 171 190 193 100 198 201 213 210 179 200 198 207 177 195 187 195 175 209 226 196 230 197 231 223 203
221 213 206 205 209 89 205 207 140 185 204 209 222 108 197 182 204 126 218 184 190 202 193 202 194 180 184 190 199 182 200 193
195 187 216 207 211 217 221 223 156 227 241 223 203 214 213 199 164 200 176 198 182 202 178 188 180 191 204 212 188 247 223 221
199 262 244 232 235 229 221 221 207 198 202 226 213 212 192 232 218 202 229 180 193 179 218 218 223 230 217 200 205 204 197 196
253 203 201 209 211 213 196 202 197 177 211 203 210 211 214 199 208 213 234 197 182 227 235 204 222 200 181 194 188 187 202 228
236 241 239 233 224 219 215 219 215 218 215 217 196 191 191 195 159 206 207 199 201 199 189 204 207 196 198 195 192 198 239 228
215 233 230 231 232 234 230 226 220 224 227 228 228 228 226 230 229 216 224 224 222 207 216 188 186 193 211 220 220 229 222 221
234 237 240 244 246 246 251 250 246 219 249 250 242 237 237 241 240 238 237 91 184 227 232 233 230 227 222 220 244 241 228 226
267 281 302 300 297 282 282 282 263 285 300 286 288 284 278 282 237 255 249 241 240 238 235 232 233 246 234 247 242 198 253 226
395 384 378 374 376 383 347 380 369 364 356 378 379 367 259 350 345 369 340 300 265 275 260 259 247 249 245 230 242 253 221 232
356 352 351 359 343 339 330 330 325 338 339 333 334 170 177 391 340 322 339 303 288 286 270 273 247 240 240 228 235 236 210 227
318 311 313 316 330 315 312 315 314 326 322 328 340 292 311 305 297 301 290 279 281 272 271 246 236 223 214 215 228 215 225 210
302 296 311 318 303 311 315 324 320 322 340 336 311 280 270 268 284 266 269 268 274 248 236 232 218 231 215 213 225 220 209 209
292 308 295 298 289 312 307 299 298 305 306 279 272 258 264 250 258 254 253 248 248 238 223 233 226 215 215 228 217 215 216 217
Wind_Speed
83 81 73 76 82 82 84 81 75 87 51 75 77 72 67 71 65 68 78 76 78 80 79 69 71 69 66 63 59 78 74 73
82 78 65 72 85 88 89 90 82 92 89 87 90 76 74 57 69 67 79 81 79 80 83 84 73 72 74 61 60 65 68 75
83 78 71 79 85 89 93 93 96 90 90 80 83 68 77 74 75 74 62 78 76 82 85 80 75 83 78 69 64 63 69 72
77 73 74 84 88 91 92 92 94 96 91 90 89 86 67 74 79 73 74 82 83 79 84 79 87 90 85 64 66 64 67 72
42 24 37 76 80 90 95 96 97 99 98 96 93 85 76 68 83 71 83 84 83 84 69 82 92 66 67 67 58 64 59 63
37 78 76 85 89 88 17 84 100 99 35 93 89 85 76 69 80 86 82 80 87 91 77 69 75 66 81 67 79 61 72 71
69 74 83 89 94 30 99 102 59 85 92 92 88 39 82 79 82 47 73 89 85 74 67 70 76 76 67 81 79 61 65 66
74 81 84 89 94 95 95 97 64 97 90 82 81 81 84 72 63 83 77 88 89 81 77 92 76 91 79 71 79 68 71 71
76 71 89 88 92 94 90 91 86 83 85 88 88 86 78 89 82 88 63 82 99 84 78 85 81 69 77 81 77 76 79 77
73 81 83 83 83 85 79 90 92 84 90 91 92 92 87 90 86 88 80 90 86 82 88 70 81 87 75 83 77 77 85 80
78 81 83 87 91 91 92 95 93 95 95 96 99 97 94 91 69 92 88 90 85 88 84 83 82 88 85 86 84 85 82 83
85 92 93 94 96 100 98 102 99 106 107 106 109 111 109 112 112 104 106 100 97 88 97 89 84 90 89 84 85 83 83 85
101 104 106 107 108 108 108 105 107 99 118 116 118 116 115 117 118 118 115 34 79 105 108 105 101 91 85 87 86 82 80 79
115 117 117 117 117 115 116 113 116 125 126 125 128 130 123 122 107 121 117 115 111 107 106 102 98 99 95 83 82 63 68 78
36 38 40 43 46 45 63 53 59 64 65 35 34 62 50 68 72 53 61 86 79 91 101 84 79 79 72 80 72 56 74 55
22 22 25 21 24 16 21 26 37 38 29 31 31 26 30 56 64 63 57 62 76 69 68 63 58 60 61 66 59 55 75 59
18 18 16 21 16 16 24 33 39 35 37 38 32 24 21 23 25 30 32 36 45 48 49 52 58 71 69 70 59 66 61 73
16 17 20 6 11 14 22 10 6 5 8 25 35 36 28 23 24 28 28 27 33 48 55 59 67 52 69 73 62 67 73 77
20 12 10 8 14 12 8 4 6 14 33 45 45 35 42 37 35 35 34 34 43 54 60 59 62 68 72 73 76 76 76 76
Wind_Direction
278 280 282 264 271 267 270 276 279 278 274 279 282 277 281 277 272 270 266 271 272 270 272 269 278 268 262 276 268 262 262 259
274 275 271 276 269 263 268 270 276 272 274 277 278 279 281 265 269 267 260 262 271 274 269 273 278 278 274 279 269 265 264 258
273 273 261 264 267 262 264 265 267 272 273 277 276 274 284 274 271 270 256 270 273 263 267 269 275 274 277 276 270 270 257 261
270 267 265 257 262 266 264 264 265 266 271 273 275 278 266 264 270 268 267 269 268 276 264 265 277 275 275 276 280 267 260 262
266 311 317 266 264 263 264 263 264 266 269 270 273 275 272 258 265 276 267 270 262 270 268 266 268 280 278 273 271 265 269 269
275 270 265 264 262 259 276 259 262 265 277 270 271 269 262 270 254 255 253 276 260 272 267 284 269 277 275 271 279 272 261 267
253 257 262 264 264 270 263 262 265 268 269 269 268 274 262 256 258 263 257 266 264 271 275 273 276 279 275 280 275 271 273 270
264 271 254 259 263 264 266 267 267 269 272 268 262 266 264 262 256 245 275 255 268 259 279 275 277 276 270 270 276 275 271 265
266 269 260 264 263 265 268 269 269 267 267 270 268 267 264 266 262 251 256 268 258 275 268 273 275 275 269 271 273 271 271 274
283 268 267 267 266 266 266 268 268 271 265 265 266 265 265 261 263 265 268 256 266 268 273 267 269 262 276 271 275 277 275 269
282 277 271 268 265 264 265 268 264 267 266 268 264 266 268 268 264 260 262 261 259 256 266 256 256 262 267 269 271 270 268 268
283 279 275 273 270 268 266 265 267 267 266 264 263 264 263 263 263 264 262 261 262 260 263 264 266 264 267 271 271 266 265 268
282 280 276 274 272 271 270 267 270 266 263 262 260 260 261 261 261 262 263 278 264 263 266 266 269 269 270 270 265 263 263 264
282 280 278 274 271 271 270 269 267 268 266 264 262 262 260 260 259 259 260 262 261 262 262 263 266 267 268 263 259 266 266 262
274 276 274 274 272 273 267 268 255 259 262 261 257 258 238 239 250 239 237 251 261 255 257 259 256 253 258 257 258 255 261 255
289 289 283 295 289 281 265 253 253 266 252 244 234 267 266 230 235 244 231 225 235 237 237 241 231 240 251 252 259 253 262 261
291 315 294 270 260 248 244 253 255 264 247 237 228 207 195 206 221 219 210 220 225 220 219 222 230 238 247 253 242 253 245 263
270 272 287 337 293 297 260 262 272 318 263 202 166 153 156 153 162 182 188 195 203 204 215 222 240 234 245 252 249 253 258 261
266 273 260 250 261 312 213 187 126 173 157 155 160 194 167 192 169 185 185 187 193 207 223 220 224 236 242 241 246 253 257 261